Time,TemperatureF,DewpointF,PressureIn,WindDirection,WindDirectionDegrees,WindSpeedMPH,WindSpeedGustMPH,Humidity,HourlyPrecipIn,Conditions,Clouds,dailyrainin,SoftwareType,DateUTC
2013-07-27 00:12:00,70.0,59.0,-100.00,SW,215,6.0,12.0,68,0.00,,,-99.99,,2013-07-27 04:12:00,
2013-07-27 00:22:00,69.0,58.0,-100.00,SW,225,6.0,11.0,67,0.00,,,-99.99,,2013-07-27 04:22:00,
2013-07-27 00:32:00,69.0,58.0,-100.00,SW,235,4.0,8.0,67,0.00,,,-99.99,,2013-07-27 04:32:00,
2013-07-27 00:43:00,67.0,60.0,-100.00,SW,235,6.0,12.0,77,0.00,,,-99.99,,2013-07-27 04:43:00,
2013-07-27 01:12:00,67.0,61.0,-100.00,West,260,4.0,6.0,82,0.00,,,-99.99,,2013-07-27 05:12:00,
2013-07-27 01:22:00,66.0,62.0,-100.00,SSW,195,2.0,3.0,84,0.00,,,-99.99,,2013-07-27 05:22:00,
2013-07-27 01:32:00,67.0,62.0,-100.00,SSW,195,4.0,6.0,83,0.00,,,-99.99,,2013-07-27 05:32:00,
2013-07-27 01:43:00,66.0,62.0,-100.00,SSW,195,4.0,6.0,85,0.00,,,-99.99,,2013-07-27 05:43:00,
2013-07-27 02:12:00,66.0,62.0,-100.00,SSW,200,3.0,7.0,87,0.00,,,-99.99,,2013-07-27 06:12:00,
2013-07-27 02:22:00,67.0,62.0,-100.00,SSW,200,4.0,9.0,84,0.00,,,-99.99,,2013-07-27 06:22:00,
2013-07-27 02:33:00,66.0,62.0,-100.00,SSW,195,4.0,7.0,85,0.00,,,-99.99,,2013-07-27 06:33:00,
2013-07-27 02:52:00,66.0,62.0,-100.00,SSW,195,6.0,9.0,85,0.00,,,-99.99,,2013-07-27 06:52:00,
2013-07-27 03:12:00,66.0,62.0,-100.00,SSW,195,6.0,10.0,85,0.00,,,-99.99,,2013-07-27 07:12:00,
2013-07-27 03:22:00,66.0,62.0,-100.00,SSW,205,7.0,11.0,84,0.00,,,-99.99,,2013-07-27 07:22:00,
2013-07-27 03:34:00,66.0,62.0,-100.00,SSW,205,7.0,11.0,84,0.00,,,-99.99,,2013-07-27 07:34:00,
2013-07-27 03:44:00,67.0,62.0,-100.00,SSW,210,9.0,14.0,83,0.00,,,-99.99,,2013-07-27 07:44:00,
2013-07-27 03:52:00,66.0,61.0,-100.00,SSW,205,8.0,11.0,83,0.00,,,-99.99,,2013-07-27 07:52:00,
2013-07-27 04:43:00,66.0,62.0,-100.00,SSW,210,7.0,11.0,84,0.00,,,-99.99,,2013-07-27 08:43:00,
2013-07-27 04:53:00,66.0,62.0,-100.00,SW,220,6.0,11.0,84,0.00,,,-99.99,,2013-07-27 08:53:00,
2013-07-27 05:02:00,66.0,62.0,-100.00,SSW,205,9.0,12.0,84,0.00,,,-99.99,,2013-07-27 09:02:00,
2013-07-27 05:12:00,66.0,62.0,-100.00,SSW,205,7.0,9.0,85,0.00,,,-99.99,,2013-07-27 09:12:00,
2013-07-27 05:33:00,66.0,62.0,-100.00,SSW,200,5.0,9.0,86,0.00,,,-99.99,,2013-07-27 09:33:00,
2013-07-27 05:44:00,66.0,62.0,-100.00,SW,215,3.0,7.0,87,0.00,,,-99.99,,2013-07-27 09:44:00,
2013-07-27 05:52:00,66.0,62.0,-100.00,SSW,210,6.0,8.0,87,0.00,,,-99.99,,2013-07-27 09:52:00,
2013-07-27 06:02:00,66.0,62.0,-100.00,SSW,210,4.0,9.0,88,0.00,,,-99.99,,2013-07-27 10:02:00,
2013-07-27 06:22:00,66.0,62.0,-100.00,SSW,210,6.0,9.0,88,0.00,,,-99.99,,2013-07-27 10:22:00,
2013-07-27 06:32:00,66.0,62.0,-100.00,SSW,210,5.0,7.0,89,0.00,,,-99.99,,2013-07-27 10:32:00,
2013-07-27 06:52:00,65.0,63.0,-100.00,SSW,195,4.0,6.0,91,0.00,,,-99.99,,2013-07-27 10:52:00,
2013-07-27 08:03:00,66.0,63.0,-100.00,SSW,200,7.0,11.0,89,0.00,,,-99.99,,2013-07-27 12:03:00,
2013-07-27 08:43:00,67.0,64.0,-100.00,SSW,195,6.0,9.0,89,0.00,,,-99.99,,2013-07-27 12:43:00,
2013-07-27 08:52:00,67.0,64.0,-100.00,SW,215,6.0,9.0,89,0.00,,,-99.99,,2013-07-27 12:52:00,
2013-07-27 09:02:00,67.0,64.0,-100.00,SW,225,7.0,12.0,90,0.00,,,-99.99,,2013-07-27 13:02:00,
2013-07-27 09:12:00,67.0,64.0,-100.00,SW,230,5.0,9.0,90,0.00,,,-99.99,,2013-07-27 13:12:00,
2013-07-27 09:22:00,67.0,64.0,-100.00,SSW,210,7.0,12.0,90,0.00,,,-99.99,,2013-07-27 13:22:00,
2013-07-27 09:32:00,68.0,65.0,-100.00,SW,230,7.0,11.0,89,0.00,,,-99.99,,2013-07-27 13:32:00,
2013-07-27 10:12:00,69.0,65.0,-100.00,SSW,210,6.0,12.0,87,0.00,,,-99.99,,2013-07-27 14:12:00,
2013-07-27 10:22:00,69.0,65.0,-100.00,SW,225,7.0,11.0,88,0.00,,,-99.99,,2013-07-27 14:22:00,
2013-07-27 10:32:00,69.0,65.0,-100.00,WSW,240,8.0,11.0,87,0.00,,,-99.99,,2013-07-27 14:32:00,
2013-07-27 10:44:00,70.0,66.0,-100.00,SW,235,8.0,12.0,86,0.00,,,-99.99,,2013-07-27 14:44:00,
2013-07-27 11:33:00,72.0,65.0,-100.00,WSW,240,8.0,16.0,79,0.00,,,-99.99,,2013-07-27 15:33:00,
2013-07-27 11:44:00,73.0,65.0,-100.00,SW,225,6.0,12.0,75,0.00,,,-99.99,,2013-07-27 15:44:00,
2013-07-27 12:02:00,73.0,63.0,-100.00,SW,235,7.0,12.0,72,0.00,,,-99.99,,2013-07-27 16:02:00,
2013-07-27 12:12:00,74.0,64.0,-100.00,SW,230,7.0,12.0,71,0.00,,,-99.99,,2013-07-27 16:12:00,
2013-07-27 12:33:00,74.0,64.0,-100.00,WSW,240,8.0,14.0,69,0.00,,,-99.99,,2013-07-27 16:33:00,
2013-07-27 12:43:00,74.0,62.0,-100.00,SW,235,7.0,12.0,65,0.00,,,-99.99,,2013-07-27 16:43:00,
2013-07-27 12:53:00,77.0,64.0,-100.00,SW,215,6.0,12.0,64,0.00,,,-99.99,,2013-07-27 16:53:00,
2013-07-27 13:12:00,75.0,59.0,-100.00,West,270,7.0,12.0,57,0.00,,,-99.99,,2013-07-27 17:12:00,
2013-07-27 13:22:00,77.0,61.0,-100.00,West,275,9.0,16.0,56,0.00,,,-99.99,,2013-07-27 17:22:00,
2013-07-27 13:32:00,77.0,59.0,-100.00,West,275,11.0,18.0,53,0.00,,,-99.99,,2013-07-27 17:32:00,
2013-07-27 14:03:00,78.0,58.0,-100.00,WNW,285,14.0,23.0,50,0.00,,,-99.99,,2013-07-27 18:03:00,
2013-07-27 14:12:00,78.0,55.0,-100.00,West,280,16.0,21.0,45,0.00,,,-99.99,,2013-07-27 18:12:00,
2013-07-27 14:22:00,78.0,56.0,-100.00,West,260,12.0,22.0,46,0.00,,,-99.99,,2013-07-27 18:22:00,
2013-07-27 14:33:00,79.0,57.0,-100.00,West,270,12.0,20.0,47,0.00,,,-99.99,,2013-07-27 18:33:00,
2013-07-27 14:43:00,78.0,54.0,-100.00,WSW,245,14.0,19.0,43,0.00,,,-99.99,,2013-07-27 18:43:00,
2013-07-27 14:53:00,78.0,54.0,-100.00,WSW,245,16.0,21.0,42,0.00,,,-99.99,,2013-07-27 18:53:00,
2013-07-27 15:02:00,79.0,55.0,-100.00,WNW,290,16.0,24.0,43,0.00,,,-99.99,,2013-07-27 19:02:00,
2013-07-27 15:12:00,78.0,55.0,-100.00,West,275,12.0,22.0,43,0.00,,,-99.99,,2013-07-27 19:12:00,
2013-07-27 15:23:00,78.0,53.0,-100.00,WSW,245,16.0,22.0,41,0.00,,,-99.99,,2013-07-27 19:23:00,
2013-07-27 15:32:00,79.0,53.0,-100.00,WNW,285,16.0,22.0,41,0.00,,,-99.99,,2013-07-27 19:32:00,
2013-07-27 15:43:00,77.0,55.0,-100.00,West,280,16.0,21.0,45,0.00,,,-99.99,,2013-07-27 19:43:00,
2013-07-27 15:53:00,77.0,54.0,-100.00,West,265,11.0,20.0,44,0.00,,,-99.99,,2013-07-27 19:53:00,
2013-07-27 16:02:00,77.0,52.0,-100.00,WSW,255,17.0,22.0,41,0.00,,,-99.99,,2013-07-27 20:02:00,
2013-07-27 16:12:00,77.0,55.0,-100.00,West,280,11.0,17.0,46,0.00,,,-99.99,,2013-07-27 20:12:00,
2013-07-27 16:23:00,77.0,58.0,-100.00,WNW,295,11.0,19.0,50,0.00,,,-99.99,,2013-07-27 20:23:00,
2013-07-27 16:32:00,75.0,56.0,-100.00,West,270,12.0,16.0,50,0.00,,,-99.99,,2013-07-27 20:32:00,
2013-07-27 16:43:00,74.0,56.0,-100.00,WNW,285,9.0,17.0,51,0.00,,,-99.99,,2013-07-27 20:43:00,
2013-07-27 17:23:00,71.0,63.0,-100.00,WNW,300,7.0,10.0,75,0.00,,,-99.99,,2013-07-27 21:23:00,
2013-07-27 17:33:00,72.0,59.0,-100.00,NW,305,11.0,15.0,63,0.00,,,-99.99,,2013-07-27 21:33:00,
2013-07-27 17:43:00,72.0,59.0,-100.00,West,280,8.0,12.0,64,0.00,,,-99.99,,2013-07-27 21:43:00,
2013-07-27 17:52:00,72.0,57.0,-100.00,NW,305,11.0,16.0,60,0.00,,,-99.99,,2013-07-27 21:52:00,
2013-07-27 18:02:00,69.0,57.0,-100.00,NW,310,12.0,24.0,65,0.00,,,-99.99,,2013-07-27 22:02:00,
2013-07-27 18:12:00,68.0,58.0,-100.00,NW,315,13.0,19.0,68,0.00,,,-99.99,,2013-07-27 22:12:00,
2013-07-27 18:22:00,67.0,60.0,-100.00,WNW,300,8.0,22.0,78,0.00,,,-99.99,,2013-07-27 22:22:00,
2013-07-27 18:33:00,67.0,60.0,-100.00,WNW,300,9.0,14.0,76,0.00,,,-99.99,,2013-07-27 22:33:00,
2013-07-27 18:43:00,68.0,60.0,-100.00,NNW,330,8.0,17.0,74,0.00,,,-99.99,,2013-07-27 22:43:00,
2013-07-27 19:12:00,68.0,56.0,-100.00,NNW,330,14.0,19.0,66,0.00,,,-99.99,,2013-07-27 23:12:00,
2013-07-27 19:22:00,68.0,56.0,-100.00,NNW,330,14.0,22.0,66,0.00,,,-99.99,,2013-07-27 23:22:00,
2013-07-27 19:32:00,66.0,56.0,-100.00,NNW,335,12.0,19.0,68,0.00,,,-99.99,,2013-07-27 23:32:00,
2013-07-27 19:44:00,66.0,55.0,-100.00,NW,325,14.0,21.0,68,0.00,,,-99.99,,2013-07-27 23:44:00,
2013-07-27 20:12:00,65.0,54.0,-100.00,NNW,330,7.0,14.0,68,0.00,,,-99.99,,2013-07-28 00:12:00,
2013-07-27 20:22:00,64.0,55.0,-100.00,NNW,340,7.0,12.0,69,0.00,,,-99.99,,2013-07-28 00:22:00,
2013-07-27 20:32:00,64.0,54.0,-100.00,NNW,335,7.0,13.0,70,0.00,,,-99.99,,2013-07-28 00:32:00,
2013-07-27 20:44:00,64.0,54.0,-100.00,NNW,345,6.0,11.0,70,0.00,,,-99.99,,2013-07-28 00:44:00,
2013-07-27 21:02:00,63.0,54.0,-100.00,NNW,335,4.0,9.0,72,0.00,,,-99.99,,2013-07-28 01:02:00,
2013-07-27 21:12:00,62.0,54.0,-100.00,NNW,340,7.0,10.0,73,0.00,,,-99.99,,2013-07-28 01:12:00,
2013-07-27 21:22:00,62.0,54.0,-100.00,NNW,335,6.0,11.0,75,0.00,,,-99.99,,2013-07-28 01:22:00,
2013-07-27 21:32:00,61.0,53.0,-100.00,NNW,340,5.0,10.0,75,0.00,,,-99.99,,2013-07-28 01:32:00,
2013-07-27 21:53:00,60.0,53.0,-100.00,NNW,340,4.0,7.0,76,0.00,,,-99.99,,2013-07-28 01:53:00,
2013-07-27 22:03:00,60.0,53.0,-100.00,NNW,330,4.0,6.0,78,0.00,,,-99.99,,2013-07-28 02:03:00,
2013-07-27 22:12:00,59.0,53.0,-100.00,NW,325,3.0,5.0,79,0.00,,,-99.99,,2013-07-28 02:12:00,
2013-07-27 22:22:00,59.0,53.0,-100.00,NW,320,2.0,4.0,79,0.00,,,-99.99,,2013-07-28 02:22:00,
2013-07-27 22:32:00,58.0,53.0,-100.00,NW,325,3.0,4.0,81,0.00,,,-99.99,,2013-07-28 02:32:00,
2013-07-27 22:42:00,58.0,53.0,-100.00,NW,325,3.0,4.0,81,0.00,,,-99.99,,2013-07-28 02:42:00,
2013-07-27 22:53:00,58.0,52.0,-100.00,NNW,335,3.0,5.0,82,0.00,,,-99.99,,2013-07-28 02:53:00,
2013-07-27 23:03:00,58.0,52.0,-100.00,NW,325,3.0,4.0,82,0.00,,,-99.99,,2013-07-28 03:03:00,
2013-07-27 23:12:00,58.0,52.0,-100.00,NW,320,2.0,7.0,81,0.00,,,-99.99,,2013-07-28 03:12:00,
2013-07-27 23:22:00,57.0,52.0,-100.00,NW,320,4.0,6.0,82,0.00,,,-99.99,,2013-07-28 03:22:00,
2013-07-27 23:32:00,57.0,51.0,-100.00,NW,325,5.0,8.0,80,0.00,,,-99.99,,2013-07-28 03:32:00,
2013-07-27 23:42:00,57.0,51.0,-100.00,NW,310,5.0,9.0,80,0.00,,,-99.99,,2013-07-28 03:42:00,